轨道通信卫星FM110星 (ORBCOMM FM110)

导读 | 星芒AI

ORBCOMM FM110 是一款专为物联网(IoT)和远程监控设计的蜂窝调制解调器,支持 2G、3G 和 4G 网络,适用于全球范围内的移动数据传输。该设备具备低功耗、高可靠性和广泛的网络兼容性,广泛应用于物流、车队管理、资产追踪等领域。其坚固的设计使其适用于恶劣环境,确保在各种条件下稳定运行。ORBCOMM FM110 提供灵活的安装选项和多种通信协议支持,便于集成到各类系统中,是实现远程连接和自动化管理的理想选择。

基本信息
目录编号:
41182
目录名称:
ORBCOMM FM 110
国际标识:
2015-081D
轨道中心:
EARTH
卫星名称:
轨道通信卫星FM110星
卫星全名:
轨道通信卫星FM110星 (ORBCOMM FM110)
卫星状态:
在轨 (已飞行3599 天)
发射日期:
2015-12-22 UTC
国别 :
(ORB)
星等 :
--
轨道信息
数据来源 国际轨道数据 AOE轨道数据
星历时间 2025-10-29T19:37:04+0800
5小时前
查看轨道信息
2025-10-29T08:00:00+0800
17小时前
查看轨道信息
半长轴 7076.171km 7076.184km
偏心率 0.0001419 0.0001244
轨道倾角 47.004° 47.003°
近地点辐角 109.802° 105.290°
升交点赤经 11.969° 14.256°
平近点角 250.302° 230.921°
近地点 697.031km 697.168km
远地点 699.041km 698.93km
周期 98.732分钟 98.732分钟
每日圈数 14.584962 14.584923
详细信息
固有亮度:
8
最大亮度:
6.7
平衡模式:
三轴稳定
覆盖范围:
全球
运营商:
轨道通信公司
运营商所在国:
美国
使用方式:
暂无
卫星简介
轨道通信FM(Orbcomm FM)是一系列低地球轨道通信卫星,由美国卫星通信公司 Orbcomm运营。 截至2015年12月,已有63颗此类卫星绕地球运行。该卫星仍在工作。
2D轨道图
3D轨道图
轨道高度分析图
轨道倾角分析图
轨道综合分析图
查看轨道综合分析图